Tracking 25701 objects as of 3-Jul-2022
HD Live streaming from Space Station
objects crossing your sky now

FENGYUN 1C DEB

Track FENGYUN 1C DEB now!
10-day predictions


NORAD ID: 30381
Int'l Code: 1999-025ACU
Perigee: 836.2 km
Apogee: 924.0 km
Inclination: 98.9 °
Period: 102.4 minutes
Semi major axis: 7251 km
RCS: 0.0084 m2 (small)
Launch date: May 10, 1999
Source: People's Republic of China (PRC)
Launch site: Taiyaun Space Center, China (TSC)

Note: This is SATELLITE DEBRIS
aabbcc
Your satellite tracking list
Your tracking list is empty




NASA's NSSDC Master Catalog

Two Line Element Set (TLE):
1 30381U 99025ACU 22183.56562796  .00000477  00000-0  31224-3 0  9995
2 30381  98.9190 222.4163 0060493  23.0263 337.3596 14.06041882744332
Source of the keplerian elements: AFSPC